Flag for Uganda

Past Weather in Kampala, Uganda — Yesterday and Last 2 Weeks

Now
77 °F

Passing clouds.


Feels Like: 79 °F
Forecast: 80 / 66 °F
Wind: 15 mph from South

Location: Entebbe Airport

Current Time: Jul 10, 2020 at 7:08:18 pm

Latest Report: Jul 10, 2020 at 6:00 pm


Visibility: N/A

Pressure: 29.98 "Hg (26.04 "Hg at 1230m altitude)

Humidity: 69%

Dew Point: 66 °F

Location of KampalaLocation

Past Weather in Kampala — Graph

°F

Kampala Temperature Yesterday

Maximum temperature yesterday: 79 °F (at 2:00 pm)
Minimum temperature yesterday: 70 °F (at 1:00 am)
Average temperature yesterday: 74 °F

High & Low Weather Summary for the Past Weeks

 TemperatureHumidityPressure
High81 °F (Jul 3, 1:00 pm)100% (Jun 30, 7:30 am)30.12 "Hg (Jun 30, 7:30 am)
Low66 °F (Jun 30, 7:00 am)39% (Jul 9, 1:00 pm)29.95 "Hg (Jul 5, 5:30 pm)
Average74 °F75%30.03 "Hg
* Reported Jun 25 5:00 pm — Jul 10 5:30 pm, Kampala. Weather by CustomWeather, © 2020

Note: Actual official high and low records may vary slightly from our data, if they occured in-between our weather recording intervals... More about our weather records

Kampala Weather History for the Previous 24 Hours

Scroll right to see more
 ConditionsComfort  
Time TempWeatherWind HumidityBarometerVisibility
5:30 pm
Fri, Jul 10
79 °FPassing clouds.15 mph65%29.98 "HgN/A
5:00 pm79 °FPassing clouds.16 mph65%29.98 "HgN/A
4:00 pm77 °FPassing clouds.12 mph69%29.98 "HgN/A
3:30 pm77 °FPassing clouds.14 mph69%30.01 "HgN/A
3:00 pm77 °FPassing clouds.12 mph74%30.01 "HgN/A
2:30 pm77 °FPassing clouds.12 mph74%30.01 "HgN/A
2:00 pm79 °FPassing clouds.17 mph70%30.01 "HgN/A
1:30 pm79 °FPassing clouds.9 mph74%30.04 "HgN/A
1:00 pm77 °FPassing clouds.9 mph74%30.04 "HgN/A
12:30 pm77 °FPassing clouds.7 mph69%30.04 "Hg6 mi
12:00 pm75 °FPassing clouds.12 mph74%30.04 "Hg6 mi
11:30 am77 °FPassing clouds.17 mph69%30.07 "Hg6 mi
11:00 am75 °FPassing clouds.9 mph74%30.07 "Hg6 mi
10:30 am75 °FPassing clouds.No wind74%30.07 "Hg6 mi
10:00 am73 °FThunderstorms. Passing clouds.5 mph74%30.07 "Hg6 mi
9:30 am73 °FThunderstorms. Passing clouds.5 mph69%30.07 "HgN/A
9:00 am72 °FPassing clouds.2 mph83%30.04 "Hg6 mi
8:30 am73 °FPassing clouds.2 mph78%30.04 "Hg6 mi
8:00 am73 °FPassing clouds.2 mph78%30.04 "Hg6 mi
7:30 am73 °FPassing clouds.2 mph78%30.04 "Hg6 mi
7:00 am72 °FPartly sunny.2 mph78%30.01 "Hg6 mi
6:30 am70 °FPassing clouds.5 mph83%30.01 "Hg6 mi
6:00 am70 °FPassing clouds.6 mph83%30.01 "Hg6 mi
5:30 am70 °FPassing clouds.5 mph83%30.01 "Hg6 mi
5:00 am70 °FPassing clouds.6 mph83%30.01 "Hg6 mi
4:00 am70 °FPassing clouds.No wind83%29.98 "Hg6 mi
3:30 am70 °FMild.2 mph88%29.98 "HgN/A
3:00 am70 °FPassing clouds.2 mph88%29.98 "Hg6 mi
2:30 am72 °FPassing clouds.2 mph83%30.01 "Hg6 mi
2:00 am72 °FPassing clouds.5 mph83%30.01 "Hg6 mi
1:30 am72 °FPassing clouds.6 mph83%30.01 "Hg6 mi
1:00 am72 °FPassing clouds.5 mph83%30.01 "Hg6 mi
12:30 am72 °FPassing clouds.No wind83%30.01 "Hg6 mi
12:00 am72 °FPassing clouds.No wind83%30.01 "HgN/A
11:30 pm
Thu, Jul 9
72 °FPassing clouds.2 mph78%30.01 "HgN/A
11:00 pm72 °FPassing clouds.2 mph78%30.01 "HgN/A
10:30 pm72 °FPassing clouds.2 mph78%30.01 "HgN/A
10:00 pm72 °FPassing clouds.2 mph78%30.01 "HgN/A
9:30 pm72 °FPassing clouds.2 mph78%30.01 "HgN/A
9:00 pm73 °FPassing clouds.2 mph74%29.98 "HgN/A
8:30 pm73 °FPassing clouds.6 mph74%29.98 "HgN/A
8:00 pm73 °FPassing clouds.7 mph74%29.98 "HgN/A
7:30 pm73 °FPassing clouds.10 mph69%29.98 "HgN/A
7:00 pm75 °FPassing clouds.12 mph65%29.95 "HgN/A
Weather by CustomWeather, © 2020

See weather overview